Flag for U.S.A. Weather past 2 weeks in Albuquerque, New Mexico, U.S.A.

Now
66 °F

Scattered clouds.


Feels Like: 66 °F
Forecast: 41 / 73 °F
Wind: 8 mph from North

Location: Albuquerque International Airport

Current Time: Apr 19, 2015 at 6:02:30 PM

Latest Report: Apr 19, 2015 at 4:52 PM


Visibility: 10 mi

Pressure: 29.80 "Hg

Humidity: 17%

Dew point: 20 °F

Location of AlbuquerqueLocation

Historic Weather in Albuquerque — Graph

°F

Albuquerque temperature yesterday

Maximum temperature yesterday: 63 °F (at 3:52 PM)
Minimum temperature yesterday: 36 °F (at 3:52 AM)
Average temperature yesterday: 50 °F

Past Weeks' High & Low Weather Summary

 TemperatureHumidityPressure
High76 °F (Apr 8, 2:52 PM)62% (Apr 18, 3:52 AM)30.16 "Hg (Apr 18, 3:52 AM)
Low32 °F (Apr 16, 4:52 AM)5% (Apr 7, 4:52 PM)29.52 "Hg (Apr 8, 4:52 PM)
Average57 °F25%29.85 "Hg
* Reported Apr 4 3:52 PM — Apr 19 3:52 PM, Albuquerque, Weather by CustomWeather, © 2015

Note: Actual official high and low records may vary slightly from our data, if they occured in-between our weather recording intervals... More about our weather records

Advertising

Albuquerque weather history for previous 24 hours

 ConditionsComfort  
Time TempWeatherWind HumidityBarometerVisibility
3:52 PM
Sun, Apr 19
65 °FScattered clouds.6 mph18%29.81 "Hg10 mi
2:52 PM66 °FScattered clouds.3 mph18%29.84 "Hg10 mi
1:52 PM64 °FScattered clouds.3 mph18%29.88 "Hg10 mi
12:52 PM62 °FPassing clouds.7 mph19%29.91 "Hg10 mi
11:52 AM60 °FPassing clouds.No wind24%29.93 "Hg10 mi
10:52 AM56 °FPassing clouds.No wind34%29.96 "Hg10 mi
9:52 AM53 °FPassing clouds.No wind41%29.95 "Hg10 mi
8:52 AM50 °FPassing clouds.No wind50%29.96 "Hg10 mi
7:52 AM49 °FPassing clouds.8 mph50%29.95 "Hg10 mi
6:52 AM45 °FPassing clouds.3 mph58%29.93 "Hg10 mi
5:52 AM47 °FPassing clouds.8 mph56%29.88 "Hg10 mi
4:52 AM48 °FPassing clouds.15 mph52%29.87 "Hg10 mi
3:52 AM49 °FPassing clouds.8 mph50%29.86 "Hg10 mi
2:52 AM50 °FPassing clouds.9 mph48%29.86 "Hg10 mi
1:52 AM52 °FPassing clouds.8 mph41%29.85 "Hg10 mi
12:52 AM53 °FPassing clouds.14 mph37%29.85 "Hg10 mi
11:52 PM
Sat, Apr 18
54 °FPassing clouds.5 mph33%29.84 "Hg10 mi
10:52 PM52 °FPassing clouds.5 mph34%29.86 "Hg10 mi
9:52 PM55 °FPassing clouds.5 mph30%29.85 "Hg10 mi
8:52 PM57 °FPassing clouds.13 mph28%29.86 "Hg10 mi
7:52 PM57 °FPassing clouds.15 mph31%29.85 "Hg10 mi
6:52 PM60 °FPassing clouds.26 mph27%29.83 "Hg10 mi
Weather by CustomWeather, © 2015

See weather overviewHow to use our weather pages